Weather History for PAIN - November, 2012

Change the Weather History Date:

Tuesday, November 27, 2012

  Actual Average Record
Temperature  
Mean Temperature -12 °F -  
Max Temperature -7 °F 13 °F 43 °F (1956)
Min Temperature -18 °F -2 °F -32 °F (2011)
Degree Days  
Heating Degree Days 78    
Moisture  
Dew Point -18 °F    
Average Humidity 83    
Maximum Humidity 92    
Minimum Humidity 76    
Precipitation  
Precipitation 0.00 in - - ()
Sea Level Pressure  
Sea Level Pressure 30.13 in    
Wind  
Wind Speed 0 mph (SSW)    
Max Wind Speed 5 mph    
Max Gust Speed -    
Visibility 10 miles    
Events      
Averages and records for this station are not official NWS values.
T = Trace of Precipitation, MM = Missing Value Source: NWS Daily Summary

Daily Weather History Graph

Daily Weather History Graph

Search for Another Location

Airport or City:

Trip Planner

Search our weather history database for the weather conditions in past years. The results will help you decide how hot, cold, wet, or windy it might be!

Date:

Astronomy

Nov. 27, 2012 Rise Set
Actual Time 9:59 AM AKST 3:27 PM AKST
Civil Twilight 8:53 AM AKST 4:33 PM AKST
Nautical Twilight 7:49 AM AKST 5:36 PM AKST
Astronomical Twilight 6:52 AM AKST 6:33 PM AKST
Moon 3:11 PM AKST (11/27) 9:05 AM AKST (11/27)
Length of Visible Light 7h 40m
Length of Day
5h 27m
Full, 100% of the Moon is Illuminated
Nov 27
Full
Nov 28
Full
Dec 6
Last Quarter
Dec 12
New
Dec 19
First Quarter

Hourly Weather History & Observations

Time (AKST) Temp. Windchill Dew Point Humidity Pressure Visibility Wind Dir Wind Speed Gust Speed Precip Events Conditions
12:16 AM -14.8 °F - -16.6 °F 92% 30.15 in 10.0 mi Calm Calm - N/A   Clear
12:36 AM -14.8 °F - -18.4 °F 84% 30.15 in 10.0 mi Calm Calm - N/A   Clear
12:56 AM -14.8 °F - -18.4 °F 84% 30.14 in 10.0 mi Calm Calm - N/A   Clear
1:16 AM -14.8 °F - -18.4 °F 84% 30.14 in 10.0 mi Calm Calm - N/A   Clear
1:36 AM -14.8 °F - -16.6 °F 92% 30.14 in 10.0 mi Calm Calm - N/A   Clear
1:56 AM -14.8 °F - -18.4 °F 84% 30.13 in 10.0 mi Calm Calm - N/A   Clear
2:16 AM -14.8 °F - -18.4 °F 84% 30.13 in 10.0 mi Calm Calm - N/A   Clear
2:36 AM -14.8 °F - -18.4 °F 84% 30.13 in 10.0 mi Calm Calm - N/A   Clear
2:56 AM -14.8 °F - -18.4 °F 84% 30.13 in 10.0 mi Calm Calm - N/A   Clear
3:16 AM -14.8 °F - -18.4 °F 84% 30.13 in 10.0 mi Calm Calm - N/A   Clear
3:36 AM -14.8 °F -27.2 °F -18.4 °F 84% 30.12 in 10.0 mi SSW 4.6 mph - N/A   Clear
3:56 AM -14.8 °F - -18.4 °F 84% 30.12 in 10.0 mi Calm Calm - N/A   Clear
4:16 AM -14.8 °F - -18.4 °F 84% 30.12 in 10.0 mi Calm Calm - N/A   Clear
4:36 AM -14.8 °F - -18.4 °F 84% 30.12 in 10.0 mi Calm Calm - N/A   Clear
4:56 AM -14.8 °F - -16.6 °F 92% 30.11 in 10.0 mi Calm Calm - N/A   Clear
5:16 AM -14.8 °F - -18.4 °F 84% 30.11 in 10.0 mi Calm Calm - N/A   Clear
5:36 AM -14.8 °F - -18.4 °F 84% 30.11 in 10.0 mi Calm Calm - N/A   Clear
5:56 AM -14.8 °F - -18.4 °F 84% 30.11 in 10.0 mi Calm Calm - N/A   Clear
6:16 AM -14.8 °F - -18.4 °F 84% 30.11 in 10.0 mi Calm Calm - N/A   Clear
6:36 AM -14.8 °F - -18.4 °F 84% 30.11 in 10.0 mi Calm Calm - N/A   Clear
6:56 AM -14.8 °F - -18.4 °F 84% 30.11 in 10.0 mi Calm Calm - N/A   Clear
7:36 AM -16.6 °F - -20.2 °F 84% 30.11 in 10.0 mi Calm Calm - N/A   Clear
7:56 AM -16.6 °F - -18.4 °F 92% 30.11 in 10.0 mi Calm Calm - N/A   Clear
8:16 AM -16.6 °F - -20.2 °F 84% 30.11 in 10.0 mi Calm Calm - N/A   Clear
8:36 AM -16.6 °F - -20.2 °F 84% 30.11 in 10.0 mi Calm Calm - N/A   Clear
8:56 AM -16.6 °F - -20.2 °F 84% 30.11 in 10.0 mi Calm Calm - N/A   Clear
9:16 AM -16.6 °F - -20.2 °F 84% 30.12 in 10.0 mi Calm Calm - N/A   Clear
9:36 AM -14.8 °F - -18.4 °F 84% 30.12 in 10.0 mi Calm Calm - N/A   Clear
9:56 AM -14.8 °F - -20.2 °F 77% 30.12 in 10.0 mi Calm Calm - N/A   Clear
10:16 AM -16.6 °F - -20.2 °F 84% 30.13 in 10.0 mi Calm Calm - N/A   Clear
10:36 AM -14.8 °F - -18.4 °F 84% 30.13 in 10.0 mi Calm Calm - N/A   Clear
10:56 AM -16.6 °F - -18.4 °F 92% 30.13 in 10.0 mi Calm Calm - N/A   Clear
11:16 AM -13.0 °F - -16.6 °F 84% 30.13 in 10.0 mi Calm Calm - N/A   Clear
11:36 AM -11.2 °F - -16.6 °F 77% 30.13 in 10.0 mi Calm Calm - N/A   Clear
11:56 AM -11.2 °F - -14.8 °F 84% 30.12 in 10.0 mi Calm Calm - N/A   Clear
12:16 PM -9.4 °F - -14.8 °F 77% 30.12 in 10.0 mi Calm Calm - N/A   Clear
12:36 PM -9.4 °F - -14.8 °F 77% 30.12 in 10.0 mi Calm Calm - N/A   Clear
12:56 PM -7.6 °F - -11.2 °F 84% 30.13 in 10.0 mi Calm Calm - N/A   Clear
1:16 PM -9.4 °F - -13.0 °F 84% 30.13 in 10.0 mi Calm Calm - N/A   Clear
1:36 PM -9.4 °F - -13.0 °F 84% 30.13 in 10.0 mi Calm Calm - N/A   Clear
1:56 PM -7.6 °F - -11.2 °F 84% 30.12 in 10.0 mi Calm Calm - N/A   Clear
2:16 PM -9.4 °F - -13.0 °F 84% 30.12 in 10.0 mi Calm Calm - N/A   Clear
2:36 PM -9.4 °F - -13.0 °F 84% 30.12 in 10.0 mi Calm Calm - N/A   Clear
2:56 PM -9.4 °F - -13.0 °F 84% 30.12 in 10.0 mi Calm Calm - N/A   Clear
3:16 PM -11.2 °F - -14.8 °F 84% 30.12 in 10.0 mi Calm Calm - N/A   Clear
3:36 PM -11.2 °F - -16.6 °F 77% 30.12 in 10.0 mi Calm Calm - N/A   Clear
3:56 PM -11.2 °F - -16.6 °F 77% 30.13 in 10.0 mi Calm Calm - N/A   Clear
4:16 PM -11.2 °F - -16.6 °F 77% 30.13 in 10.0 mi Calm Calm - N/A   Clear
4:36 PM -13.0 °F - -16.6 °F 84% 30.13 in 10.0 mi Calm Calm - N/A   Clear
4:56 PM -14.8 °F - -18.4 °F 84% 30.13 in 10.0 mi Calm Calm - N/A   Clear
5:16 PM -14.8 °F - -18.4 °F 84% 30.13 in 10.0 mi Calm Calm - N/A   Clear
5:36 PM -14.8 °F - -18.4 °F 84% 30.13 in 10.0 mi Calm Calm - N/A   Clear
5:56 PM -14.8 °F - -18.4 °F 84% 30.13 in 10.0 mi Calm Calm - N/A   Clear
6:16 PM -14.8 °F - -18.4 °F 84% 30.14 in 10.0 mi Calm Calm - N/A   Clear
6:36 PM -14.8 °F - -18.4 °F 84% 30.14 in 10.0 mi Calm Calm - N/A   Clear
6:56 PM -14.8 °F - -20.2 °F 77% 30.14 in 10.0 mi Calm Calm - N/A   Clear
7:16 PM -16.6 °F - -20.2 °F 84% 30.14 in 10.0 mi Calm Calm - N/A   Clear
7:36 PM -16.6 °F - -20.2 °F 84% 30.14 in 10.0 mi Calm Calm - N/A   Clear
7:56 PM -16.6 °F - -20.2 °F 84% 30.15 in 10.0 mi Calm Calm - N/A   Clear
8:16 PM -16.6 °F - -20.2 °F 84% 30.15 in 10.0 mi Calm Calm - N/A   Clear
8:36 PM -16.6 °F - -22.0 °F 76% 30.15 in 10.0 mi Calm Calm - N/A   Clear
8:56 PM -18.4 °F - -22.0 °F 84% 30.15 in 10.0 mi Calm Calm - N/A   Clear
9:16 PM -18.4 °F - -20.2 °F 91% 30.16 in 10.0 mi Calm Calm - N/A   Clear
9:36 PM -16.6 °F - -20.2 °F 84% 30.16 in 10.0 mi Calm Calm - N/A   Clear
9:56 PM -18.4 °F - -22.0 °F 84% 30.16 in 10.0 mi Calm Calm - N/A   Clear
10:16 PM -18.4 °F - -22.0 °F 84% 30.15 in 10.0 mi Calm Calm - N/A   Clear
10:36 PM -16.6 °F - -20.2 °F 84% 30.16 in 10.0 mi Calm Calm - N/A   Clear
10:56 PM -18.4 °F - -22.0 °F 84% 30.16 in 10.0 mi Calm Calm - N/A   Clear
11:16 PM -18.4 °F - -23.8 °F 76% 30.16 in 10.0 mi Calm Calm - N/A   Clear
11:36 PM -18.4 °F - -23.8 °F 76% 30.16 in 10.0 mi Calm Calm - N/A   Clear
11:56 PM -18.4 °F - -23.8 °F 76% 30.16 in 10.0 mi Calm Calm - N/A   Clear